UAL1033 KILM-KATL

Flight info

Callsign UAL1033
Flight time N/A
Altitude 34000
Route KAATT Q172 YUTEE SKWKR JJEDI4
Aircraft A320/M-SDE3FGHIRWY/LB1

Departure

Time 2026-05-07 04:23
Airport Wilmington International Airport (KILM)

Arrival

Time N/A
Airport Hartsfield Jackson Atlanta International Airport (KATL)
Time Latitude Longitude Altitude Speed Heading
2026-05-07 04:05 34.26631 -77.90851 39 ft 0 kts 315°
2026-05-07 04:13 34.26624 -77.90842 40 ft 2 kts 315°
2026-05-07 04:13 34.26611 -77.90827 39 ft 2 kts 315°
2026-05-07 04:13 34.26599 -77.90813 40 ft 2 kts 355°
2026-05-07 04:13 34.26589 -77.90813 37 ft 0 kts 38°
2026-05-07 04:15 34.26591 -77.90811 38 ft 1 kts 38°
2026-05-07 04:16 34.26596 -77.90804 40 ft 2 kts 52°
2026-05-07 04:16 34.26608 -77.90781 38 ft 4 kts 59°
2026-05-07 04:16 34.26631 -77.90741 39 ft 7 kts 52°
2026-05-07 04:16 34.26671 -77.90692 41 ft 9 kts 36°
2026-05-07 04:17 34.26710 -77.90631 41 ft 10 kts 50°
2026-05-07 04:17 34.26742 -77.90588 41 ft 0 kts 47°
2026-05-07 04:18 34.26769 -77.90551 41 ft 14 kts 50°
2026-05-07 04:18 34.26842 -77.90443 40 ft 18 kts 51°
2026-05-07 04:18 34.26929 -77.90313 39 ft 21 kts 51°
2026-05-07 04:18 34.27024 -77.90169 40 ft 23 kts 51°
2026-05-07 04:19 34.27133 -77.90017 40 ft 25 kts 49°
2026-05-07 04:19 34.27147 -77.89998 39 ft 0 kts 50°
2026-05-07 04:19 34.27151 -77.89989 40 ft 3 kts 59°
2026-05-07 04:20 34.27192 -77.89924 40 ft 17 kts 51°
2026-05-07 04:20 34.27278 -77.89807 40 ft 20 kts 50°
2026-05-07 04:20 34.27374 -77.89691 40 ft 20 kts 24°
2026-05-07 04:21 34.27574 -77.89503 40 ft 21 kts 49°
2026-05-07 04:21 34.27675 -77.89364 40 ft 23 kts 48°
2026-05-07 04:21 34.27761 -77.89235 37 ft 14 kts 69°
2026-05-07 04:21 34.27709 -77.89144 39 ft 15 kts 138°
2026-05-07 04:22 34.27679 -77.89113 39 ft 2 kts 135°
2026-05-07 04:22 34.27649 -77.89091 39 ft 7 kts 162°
2026-05-07 04:22 34.27603 -77.89122 38 ft 10 kts 228°
2026-05-07 04:22 34.27437 -77.89343 37 ft 76 kts 227°
2026-05-07 04:23 34.26913 -77.90045 41 ft 144 kts 227°
2026-05-07 04:23 34.26154 -77.91051 300 ft 177 kts 229°
2026-05-07 04:23 34.25305 -77.92229 821 ft 187 kts 231°
2026-05-07 04:23 34.24448 -77.93500 1432 ft 207 kts 230°
2026-05-07 04:24 34.23479 -77.94919 2018 ft 228 kts 230°
2026-05-07 04:24 34.22597 -77.96521 2842 ft 239 kts 248°
2026-05-07 04:24 34.22375 -77.98537 3740 ft 247 kts 271°
2026-05-07 04:24 34.22460 -78.00614 4772 ft 248 kts 272°
2026-05-07 04:25 34.22547 -78.02712 5731 ft 252 kts 271°
2026-05-07 04:25 34.22634 -78.04851 6617 ft 256 kts 271°
2026-05-07 04:25 34.22722 -78.07014 7493 ft 259 kts 271°
2026-05-07 04:25 34.22809 -78.09176 8350 ft 262 kts 271°
2026-05-07 04:26 34.22896 -78.11394 9233 ft 265 kts 271°
2026-05-07 04:26 34.22981 -78.13630 10082 ft 267 kts 271°
2026-05-07 04:26 34.23067 -78.15957 10463 ft 288 kts 271°
2026-05-07 04:26 34.23160 -78.18466 10666 ft 311 kts 272°
2026-05-07 04:27 34.23261 -78.21174 10842 ft 332 kts 272°
2026-05-07 04:27 34.23366 -78.23973 11334 ft 341 kts 272°
2026-05-07 04:27 34.23476 -78.26847 12004 ft 344 kts 272°
2026-05-07 04:27 34.23582 -78.29686 12682 ft 346 kts 272°